Location: Newark
(41.5333°N, 14.5500°E)
Time: 06:31:29
(UTC+00:00)

Envisat - Visible Passes

Search period start: 26 January 2020 00:00
Search period end: 05 February 2020 00:00
Orbit: 764 x 766 km, 98.1° (Epoch: 25 January)

Date Brightness Start Highest point End Pass type
(mag) Time Alt. Az. Time Alt. Az. Time Alt. Az.
26 Jan 3.4 05:36:58 10° NNE 05:42:04 70° ESE 05:47:07 10° S visible
26 Jan 3.0 16:51:30 10° SSE 16:56:35 89° WSW 17:01:42 10° NNW visible
27 Jan 5.0 05:00:38 10° NNE 05:05:09 31° E 05:09:38 10° SSE visible
27 Jan 5.5 17:55:06 10° SW 17:59:05 23° W 18:03:06 10° NW visible
28 Jan 6.2 04:25:24 10° ENE 04:28:02 14° E 04:30:40 10° ESE visible
28 Jan 4.0 17:17:11 10° S 17:22:06 51° W 17:27:03 10° NNW visible
29 Jan 3.9 05:25:45 10° NNE 05:30:45 55° E 05:35:43 10° S visible
29 Jan 3.0 16:40:15 10° SSE 16:45:18 73° ENE 16:50:22 10° N visible
29 Jan 6.3 18:22:35 10° WSW 18:24:51 13° W 18:27:07 10° WNW visible
30 Jan 5.5 04:49:37 10° NE 04:53:47 25° E 04:57:55 10° SSE visible
30 Jan 5.1 17:43:20 10° SSW 17:47:43 29° W 17:52:06 10° NW visible
31 Jan 6.5 04:15:24 10° ENE 04:16:36 11° E 04:17:48 10° ESE visible
31 Jan 3.5 17:05:45 10° S 17:10:47 65° W 17:15:51 10° NNW visible
01 Feb 4.4 05:14:34 10° NNE 05:19:25 43° E 05:24:14 10° S visible
01 Feb 6.0 18:10:14 10° SW 18:13:25 17° W 18:16:37 10° NW visible
02 Feb 5.8 04:38:43 10° NE 04:42:24 20° E 04:46:02 10° SE visible
02 Feb 4.7 17:31:42 10° SSW 17:36:21 36° W 17:41:02 10° NNW visible
03 Feb 3.3 05:39:51 10° NNE 05:44:58 77° ESE 05:50:02 10° S visible
03 Feb 3.2 16:54:25 10° S 16:59:28 82° WSW 17:04:35 10° NNW visible
04 Feb 4.9 05:03:27 10° NNE 05:08:05 34° E 05:12:40 10° SSE visible
04 Feb 5.7 17:58:14 10° SW 18:02:01 21° W 18:05:50 10° NW visible
